Flag Weather past 2 weeks in Toccoa, Georgia, U.S.A.

Now
56 °F

Sunny.


Feels Like: 55 °F
Forecast: 44 / 64 °F
Wind: 6 mph from East

Location: Clemson-Oconee County Airport

Current Time: Oct 31, 2014 at 11:59:23 AM

Latest Report: Oct 31, 2014 at 10:54 AM


Visibility: 10 mi

Pressure: 29.93 "Hg

Humidity: 58%

Dew point: 41 °F

Location of ToccoaLocation

Historic Weather in Toccoa — Graph

°F

Toccoa temperature yesterday

Maximum temperature yesterday: 67 °F (at 2:54 PM)
Minimum temperature yesterday: 46 °F (at 8:01 AM)
Average temperature yesterday: 57 °F

Past Weeks' High & Low Weather Summary

 TemperatureHumidityPressure
High86 °F (Oct 26, 3:54 PM)93% (Oct 20, 10:02 AM)30.15 "Hg (Oct 20, 10:02 AM)
Low44 °F (Oct 23, 4:54 AM)22% (Oct 26, 5:54 PM)29.80 "Hg (Oct 18, 4:54 AM)
Average62 °F62%30.00 "Hg
* Reported Oct 16 10:54 AM — Oct 31 10:54 AM, Toccoa, Weather by CustomWeather, © 2014

Note: Actual official high and low records may vary slightly from our data, if they occured in-between our weather recording intervals... More about our weather records

Advertising

Toccoa weather history for previous 24 hours

 ConditionsComfort  
Time TempWeatherWind HumidityBarometerVisibility
10:54 AM
Oct 31
56 °FSunny.6 mph58%29.93 "Hg10 mi
9:54 AM52 °FSunny.6 mph66%29.96 "Hg10 mi
8:54 AM48 °FSunny.3 mph71%29.95 "Hg10 mi
7:54 AM47 °FClear.No wind74%29.93 "Hg10 mi
6:54 AM48 °FClear.3 mph74%29.93 "Hg10 mi
5:54 AM48 °FClear.5 mph83%29.92 "Hg10 mi
4:54 AM46 °FClear.5 mph86%29.92 "Hg10 mi
3:54 AM47 °FFog.3 mph86%29.93 "Hg0 mi
2:54 AM49 °FClear.No wind80%29.94 "Hg10 mi
1:54 AM50 °FClear.5 mph77%29.95 "Hg10 mi
12:54 AM50 °FClear.5 mph83%29.96 "Hg10 mi
11:54 PM
Oct 30
52 °FClear.No wind77%29.96 "Hg10 mi
10:54 PM52 °FClear.3 mph75%29.97 "Hg10 mi
9:54 PM54 °FClear.No wind72%29.97 "Hg10 mi
8:54 PM57 °FClear.No wind55%29.98 "Hg10 mi
7:54 PM61 °FClear.3 mph41%29.98 "Hg10 mi
6:54 PM61 °FSunny.No wind44%29.97 "Hg10 mi
5:54 PM64 °FSunny.3 mph40%29.96 "Hg10 mi
4:54 PM67 °FSunny.3 mph33%29.96 "Hg10 mi
3:54 PM67 °FSunny.No wind33%29.97 "Hg10 mi
2:54 PM67 °FSunny.7 mph33%29.98 "Hg10 mi
1:54 PM66 °FSunny.7 mph34%30.01 "Hg10 mi
12:54 PM64 °FSunny.5 mph38%30.05 "Hg10 mi
11:54 AM63 °FSunny.3 mph47%30.07 "Hg10 mi
Weather by CustomWeather, © 2014

See weather overviewHow to use our weather pages